Location: Most
(50.5133°N, 13.6207°E)
Time: 01:34:57
(UTC+02:00)

ISS - Pass Details

Date: 21 September 2021
Orbit: 417 x 423 km, 51.6° (Epoch: 22 October)

Event Time Altitude Azimuth Distance (km) Brightness Sun altitude
Rises 21:38:05 0° 268° (W) 2,364 0.9 -23.8°
Reaches altitude 10° 21:40:11 10° 271° (W) 1,501 -0.2 -24.0°
Enters shadow 21:42:20 36° 281° (W) 689 -2.2 -24.3°
